Satellite-Ground Cal/Val Region Overpasses Predictions

Prediction of Satellite NPP Overpassing Cal/Val Region: PacNW

Region Location: (Latitude: 10.00, Longitude: 139.50) to (Latitude: 22.70, Longitude: 165.60).

Table of predicted overpasses for the next 14.0 days since TLE Epoch: 8/1/2014
Interval Starting Time Starting Location Ending Time Ending Location
1 08/01/2014 14:37:32 ( 11.94, 165.60) 08/01/2014 14:38:05 ( 10.00, 165.15)
2 08/01/2014 16:15:59 ( 22.66, 142.80) 08/01/2014 16:19:34 ( 10.04, 139.79)
3 08/02/2014 03:25:03 ( 10.02, 150.31) 08/02/2014 03:28:39 ( 22.70, 147.28)
4 08/02/2014 15:56:54 ( 22.70, 147.58) 08/02/2014 16:00:30 ( 10.02, 144.56)
5 08/03/2014 03:05:59 ( 10.05, 155.08) 08/03/2014 03:09:34 ( 22.67, 152.06)
6 08/03/2014 15:37:51 ( 22.67, 152.35) 08/03/2014 15:41:26 ( 10.05, 149.33)
7 08/04/2014 02:46:55 ( 10.02, 159.85) 08/04/2014 02:50:31 ( 22.69, 156.83)
8 08/04/2014 15:18:47 ( 22.64, 157.11) 08/04/2014 15:22:22 ( 10.02, 154.10)
9 08/05/2014 02:27:51 ( 10.04, 164.62) 08/05/2014 02:31:26 ( 22.66, 161.61)
10 08/05/2014 14:59:43 ( 22.67, 161.89) 08/05/2014 15:03:18 ( 10.05, 158.88)
11 08/06/2014 03:50:17 ( 10.03, 144.02) 08/06/2014 03:53:52 ( 22.65, 141.01)
12 08/06/2014 14:41:53 ( 18.36, 165.60) 08/06/2014 14:44:15 ( 10.03, 163.64)
13 08/06/2014 16:22:09 ( 22.69, 141.29) 08/06/2014 16:24:14 ( 15.36, 139.51)
14 08/07/2014 03:31:13 ( 10.06, 148.78) 08/07/2014 03:34:48 ( 22.68, 145.77)
15 08/07/2014 16:03:05 ( 22.66, 146.06) 08/07/2014 16:06:40 ( 10.04, 143.04)
16 08/08/2014 03:12:09 ( 10.03, 153.56) 08/08/2014 03:15:44 ( 22.65, 150.55)
17 08/08/2014 15:44:01 ( 22.69, 150.83) 08/08/2014 15:47:37 ( 10.01, 147.81)
18 08/09/2014 02:53:05 ( 10.06, 158.33) 08/09/2014 02:56:40 ( 22.68, 155.31)
19 08/09/2014 15:24:57 ( 22.66, 155.60) 08/09/2014 15:28:32 ( 10.04, 152.58)
20 08/10/2014 02:34:01 ( 10.03, 163.10) 08/10/2014 02:37:36 ( 22.65, 160.09)
21 08/10/2014 15:05:53 ( 22.69, 160.38) 08/10/2014 15:09:29 ( 10.01, 157.35)
22 08/11/2014 02:17:41 ( 19.69, 165.60) 08/11/2014 02:18:32 ( 22.68, 164.85)
23 08/11/2014 03:56:26 ( 10.02, 142.50) 08/11/2014 04:00:00 ( 22.58, 139.51)
24 08/11/2014 14:46:49 ( 22.65, 165.14) 08/11/2014 14:50:24 ( 10.04, 162.13)
25 08/11/2014 16:28:18 ( 22.70, 139.78) 08/11/2014 16:28:36 ( 21.64, 139.51)
26 08/12/2014 03:37:23 ( 10.05, 147.27) 08/12/2014 03:40:58 ( 22.67, 144.26)
27 08/12/2014 16:09:15 ( 22.67, 144.54) 08/12/2014 16:12:50 ( 10.05, 141.53)
28 08/13/2014 03:18:18 ( 10.03, 152.05) 08/13/2014 03:21:53 ( 22.65, 149.03)
29 08/13/2014 15:50:10 ( 22.69, 149.32) 08/13/2014 15:53:46 ( 10.01, 146.29)
30 08/14/2014 02:59:14 ( 10.00, 156.82) 08/14/2014 03:02:50 ( 22.68, 153.80)
31 08/14/2014 15:31:07 ( 22.66, 154.08) 08/14/2014 15:34:42 ( 10.04, 151.07)


NCC Satellite Cal/Val Overpasses Prediction Service
